McCall, ID

1:37 PM MDT on March 30, 2017 (GMT -0600)
McCall

Weather History for KMYL - May, 2013

Change the Weather History Date:

Monday, May 27, 2013

  Actual Average Record
Temperature  
Mean Temperature 48 °F 48 °F  
Max Temperature 55 °F 62 °F 85 °F (1966)
Min Temperature 40 °F 35 °F 25 °F (1932)
Degree Days  
Heating Degree Days 17 17  
Month to date heating degree days 402 530  
Since 1 July heating degree days 8293 9165  
Cooling Degree Days 0 0  
Month to date cooling degree days 0 0  
Year to date cooling degree days 0 0  
Moisture  
Dew Point 39 °F    
Average Humidity 64    
Maximum Humidity 89    
Minimum Humidity 38    
Precipitation  
Precipitation 0.08 in 0.07 in 0.96 in (1941)
Month to date precipitation 1.07 1.91  
Year to date precipitation 8.69 9.50  
Sea Level Pressure  
Sea Level Pressure 29.92 in    
Wind  
Wind Speed 5 mph (SSE)    
Max Wind Speed 23 mph    
Max Gust Speed 28 mph    
Visibility 10 miles    
Events Rain    
T = Trace of Precipitation, MM = Missing Value Source: NWS Daily Summary

Daily Weather History Graph

Daily Weather History Graph

Search for Another Location

Airport or City:

Trip Planner

Search our weather history database for the weather conditions in past years. The results will help you decide how hot, cold, wet, or windy it might be!

Date:

Astronomy

May. 27, 2013 Rise Set
Actual Time 6:04 AM MDT 9:19 PM MDT
Civil Twilight 5:28 AM MDT 9:55 PM MDT
Nautical Twilight 4:42 AM MDT 10:41 PM MDT
Astronomical Twilight 3:45 AM MDT 11:39 PM MDT
Moon 11:58 PM MDT (5/27) 8:48 AM MDT (5/27)
Length of Visible Light 16h 26m
Length of Day
15h 15m
Waning Gibbous, 90% of the Moon is Illuminated
May 27
Waning Gibbous
May 31
Last Quarter
Jun 8
New
Jun 16
First Quarter
Jun 23
Full

Hourly Weather History & Observations

Time (MDT) Temp. Windchill Dew Point Humidity Pressure Visibility Wind Dir Wind Speed Gust Speed Precip Events Conditions
12:51 AM 43.0 °F - 39.9 °F 89% 29.94 in 10.0 mi Calm Calm - 0.01 in Rain Light Rain
1:18 AM 42.8 °F 37.0 °F 39.2 °F 87% 29.99 in 10.0 mi WNW 10.4 mph - 0.00 in Rain Light Rain
1:51 AM 42.1 °F 40.2 °F 37.9 °F 85% 29.96 in 10.0 mi NNW 3.5 mph - 0.01 in Rain Light Rain
2:51 AM 42.1 °F - 37.9 °F 85% 29.96 in 10.0 mi Calm Calm - 0.01 in Rain Light Rain
3:51 AM 41.0 °F - 39.0 °F 93% 29.96 in 10.0 mi Calm Calm - 0.02 in   Overcast
4:06 AM 41.0 °F - 39.2 °F 93% 29.99 in 10.0 mi Calm Calm - N/A   Overcast
4:51 AM 41.0 °F - 37.9 °F 89% 29.97 in 10.0 mi Calm Calm - N/A   Overcast
5:04 AM 41.0 °F - 39.2 °F 93% 30.00 in 10.0 mi Calm Calm - N/A   Overcast
5:24 AM 42.8 °F - 39.2 °F 87% 30.00 in 10.0 mi Calm Calm - N/A   Overcast
5:51 AM 41.0 °F - 37.9 °F 89% 29.98 in 10.0 mi Calm Calm - N/A   Overcast
6:51 AM 41.0 °F - 37.9 °F 89% 29.98 in 10.0 mi Calm Calm - N/A   Overcast
7:16 AM 42.8 °F - 37.4 °F 81% 30.00 in 10.0 mi Calm Calm - N/A   Overcast
7:26 AM 42.8 °F - 39.2 °F 87% 29.99 in 10.0 mi Calm Calm - N/A   Overcast
7:51 AM 42.1 °F - 39.0 °F 89% 29.98 in 10.0 mi Calm Calm - N/A   Overcast
8:27 AM 42.8 °F 40.1 °F 39.2 °F 87% 30.00 in 10.0 mi Variable 4.6 mph - N/A   Mostly Cloudy
8:51 AM 43.0 °F - 39.0 °F 86% 29.98 in 10.0 mi Calm Calm - N/A   Mostly Cloudy
9:04 AM 44.6 °F 43.1 °F 39.2 °F 81% 30.00 in 10.0 mi Variable 3.5 mph - N/A   Mostly Cloudy
9:21 AM 44.6 °F - 39.2 °F 81% 29.99 in 10.0 mi Calm Calm - N/A   Mostly Cloudy
9:51 AM 48.0 °F - 39.0 °F 71% 29.95 in 10.0 mi East 4.6 mph - N/A   Mostly Cloudy
10:23 AM 48.2 °F - 39.2 °F 71% 29.97 in 10.0 mi South 6.9 mph - N/A   Overcast
10:36 AM 48.2 °F - 37.4 °F 66% 29.97 in 10.0 mi SSE 4.6 mph - N/A   Overcast
10:51 AM 48.0 °F - 37.9 °F 68% 29.94 in 10.0 mi SE 8.1 mph - N/A   Overcast
11:51 AM 51.1 °F - 37.0 °F 59% 29.92 in 10.0 mi SSE 11.5 mph 18.4 mph N/A   Overcast
12:05 PM 53.6 °F - 37.4 °F 54% 29.95 in 10.0 mi SSE 13.8 mph 19.6 mph N/A   Overcast
12:51 PM 52.0 °F - 37.0 °F 57% 29.92 in 10.0 mi South 20.7 mph 27.6 mph N/A   Mostly Cloudy
1:51 PM 54.0 °F - 36.0 °F 51% 29.89 in 10.0 mi South 11.5 mph - N/A   Mostly Cloudy
2:51 PM 54.0 °F - 32.0 °F 43% 29.88 in 10.0 mi South 13.8 mph - N/A   Mostly Cloudy
3:51 PM 55.0 °F - 30.9 °F 40% 29.85 in 10.0 mi South 11.5 mph - N/A   Mostly Cloudy
4:51 PM 52.0 °F - 33.1 °F 49% 29.86 in 10.0 mi SSW 12.7 mph - N/A   Overcast
5:51 PM 50.0 °F - 36.0 °F 59% 29.87 in 10.0 mi South 9.2 mph - 0.00 in   Overcast
6:51 PM 46.9 °F - 39.0 °F 74% 29.88 in 10.0 mi SSE 6.9 mph - 0.00 in Rain Light Rain
7:05 PM 46.4 °F 43.5 °F 39.2 °F 76% 29.89 in 9.0 mi SSE 5.8 mph - 0.00 in Rain Light Rain
7:44 PM 46.4 °F - 41.0 °F 81% 29.88 in 9.0 mi Calm Calm - 0.02 in Rain Light Rain
7:51 PM 46.0 °F - 41.0 °F 83% 29.86 in 10.0 mi Calm Calm - 0.02 in Rain Light Rain
8:12 PM 44.6 °F - 41.0 °F 87% 29.87 in 10.0 mi Calm Calm - 0.00 in Rain Light Rain
8:37 PM 44.6 °F - 41.0 °F 87% 29.87 in 10.0 mi Calm Calm - 0.01 in Rain Light Rain
8:51 PM 45.0 °F 43.5 °F 41.0 °F 86% 29.85 in 10.0 mi ESE 3.5 mph - 0.01 in   Overcast
9:21 PM 44.6 °F 43.1 °F 42.8 °F 93% 29.86 in 9.0 mi SSE 3.5 mph - 0.01 in Rain Light Rain
9:51 PM 44.1 °F 42.5 °F 41.0 °F 89% 29.83 in 10.0 mi SSE 3.5 mph - 0.01 in Rain Light Rain
10:20 PM 44.6 °F 43.1 °F 41.0 °F 87% 29.85 in 10.0 mi SE 3.5 mph - 0.00 in   Overcast
10:51 PM 44.1 °F 42.5 °F 41.0 °F 89% 29.83 in 10.0 mi SSE 3.5 mph - 0.00 in   Overcast
11:12 PM 44.6 °F 41.4 °F 41.0 °F 87% 29.85 in 10.0 mi SSE 5.8 mph - N/A   Overcast
11:51 PM 44.1 °F - 41.0 °F 89% 29.80 in 10.0 mi Calm Calm - N/A   Overcast